DW3693 Weather Reports


Display with metric or nautical units.
time (UTC)temp
F
wind
direction
speed
MPH
gust
MPH
rain 1hr
in
rain 24hr
in
rain mn
in
humidity
%
barometer
mb
20260504050017 62 0.0 1.0 0.00 0.00 0.00 67 1008.0
20260504045017 63 0.0 1.0 0.00 0.00 0.00 66 1008.0
20260504044016 63 0.0 1.0 0.00 0.00 0.00 65 1007.9
20260504043017 64 0.0 1.0 0.00 0.00 0.00 62 1007.8
20260504042016 65 90 1.0 2.0 0.00 0.00 0.00 62 1007.7
20260504041017 65 0.0 1.0 0.00 0.00 0.00 62 1007.5
20260504040016 65 0.0 0.0 0.00 0.00 0.00 62 1007.2
20260504035036 66 0.0 1.0 0.00 0.00 0.00 62 1007.2
20260504034016 67 90 1.0 2.0 0.00 0.00 0.00 61 1007.0
20260504033017 68 0.0 1.0 0.00 0.00 0.00 60 1006.8
20260504032016 69 0.0 1.0 0.00 0.00 0.00 58 1006.9
20260504031016 70 0.0 0.0 0.00 0.00 0.00 56 1006.9
20260504030016 71 0.0 0.0 0.00 0.00 0.00 55 1006.8
20260504025017 73 0.0 1.0 0.00 0.00 0.00 53 1006.8
20260504024017 75 0.0 1.0 0.00 0.00 0.00 50 1006.8
20260504023016 77 90 1.0 2.0 0.00 0.00 0.00 44 1006.8
20260504022037 79 0.0 0.0 0.00 0.00 0.00 39 1006.8
20260504021016 80 0.0 0.0 0.00 0.00 0.00 38 1007.0
20260504020016 81 0.0 1.0 0.00 0.00 0.00 37 1007.1
20260504015037 82 0.0 0.0 0.00 0.00 0.00 35 1007.0
20260504014056 83 90 1.0 4.0 0.00 0.00 0.00 34 1007.3
20260504013016 84 0.0 1.0 0.00 0.00 0.00 33 1007.3
20260504012017 84 0.0 2.0 0.00 0.00 0.00 39 1007.4
20260504011016 84 90 1.0 4.0 0.00 0.00 0.00 32 1007.4
20260504010016 85 68 1.0 3.0 0.00 0.00 0.00 30 1007.6
20260504005016 85 68 1.0 2.0 0.00 0.00 0.00 32 1007.6
20260504004016 85 68 1.0 4.0 0.00 0.00 0.00 26 1007.8
20260504003016 85 180 1.0 3.0 0.00 0.00 0.00 27 1007.9
20260504002017 85 90 1.0 5.0 0.00 0.00 0.00 31 1008.0
20260504001016 86 45 1.0 2.0 0.00 0.00 0.00 27 1008.1
20260504000037 86 158 1.0 2.0 0.00 0.00 0.00 27 1008.2
20260503235015 86 90 2.0 5.0 0.00 0.00 0.00 29 1008.3
20260503234017 86 135 1.0 4.0 0.00 0.00 0.00 26 1008.3
20260503233015 85 135 1.0 3.0 0.00 0.00 0.00 29 1008.5
20260503232016 86 180 1.0 3.0 0.00 0.00 0.00 34 1008.8
20260503231036 86 23 2.0 3.0 0.00 0.00 0.00 26 1008.9
20260503230015 86 158 2.0 4.0 0.00 0.00 0.00 28 1009.1
20260503225015 86 68 1.0 3.0 0.00 0.00 0.00 29 1009.4
20260503224016 85 158 1.0 4.0 0.00 0.00 0.00 27 1009.5
20260503223015 85 113 1.0 3.0 0.00 0.00 0.00 31 1009.4
20260503222017 85 90 1.0 5.0 0.00 0.00 0.00 29 1009.7
20260503221036 85 90 1.0 3.0 0.00 0.00 0.00 27 1009.9
20260503220036 85 23 2.0 7.0 0.00 0.00 0.00 27 1010.0
20260503215015 85 90 2.0 5.0 0.00 0.00 0.00 26 1010.2
20260503214016 85 180 1.0 3.0 0.00 0.00 0.00 27 1010.4
20260503213016 85 113 2.0 4.0 0.00 0.00 0.00 29 1010.5
20260503212017 85 180 2.0 6.0 0.00 0.00 0.00 32 1010.7
20260503211017 84 135 2.0 4.0 0.00 0.00 0.00 28 1010.8
20260503210017 84 135 2.0 4.0 0.00 0.00 0.00 31 1011.0
20260503205017 84 135 2.0 7.0 0.00 0.00 0.00 31 1011.0
20260503204017 84 180 2.0 6.0 0.00 0.00 0.00 34 1011.3
20260503203021 83 68 3.0 9.0 0.00 0.00 0.00 38 1011.5
20260503202017 83 90 2.0 5.0 0.00 0.00 0.00 40 1011.6
20260503201017 82 293 2.0 4.0 0.00 0.00 0.00 36 1011.6
20260503200019 81 68 2.0 5.0 0.00 0.00 0.00 41 1011.5
20260503195017 81 338 2.0 4.0 0.00 0.00 0.00 39 1012.0
20260503194017 81 68 2.0 4.0 0.00 0.00 0.00 46 1012.1
20260503193016 81 338 2.0 5.0 0.00 0.00 0.00 36 1012.2
20260503192138 80 0 2.0 4.0 0.00 0.00 0.00 42 1012.2
20260503191017 79 0 1.0 3.0 0.00 0.00 0.00 45 1012.4
20260503190017 78 338 2.0 4.0 0.00 0.00 0.00 51 1012.6
20260503185039 77 315 1.0 5.0 0.00 0.00 0.00 53 1012.6
20260503184017 76 23 2.0 4.0 0.00 0.00 0.00 52 1012.8
20260503183036 76 23 1.0 3.0 0.00 0.00 0.00 49 1012.8
20260503182017 75 0 1.0 3.0 0.00 0.00 0.00 53 1012.9
20260503181017 74 45 1.0 2.0 0.00 0.00 0.00 55 1013.0
20260503180017 73 45 1.0 2.0 0.00 0.00 0.00 59 1013.0
20260503175016 73 23 1.0 5.0 0.00 0.00 0.00 55 1013.1
20260503174017 72 113 1.0 3.0 0.00 0.00 0.00 55 1013.2
20260503173016 71 113 1.0 2.0 0.00 0.00 0.00 53 1013.3
20260503172018 71 90 1.0 3.0 0.00 0.00 0.00 57 1013.5
20260503171016 70 68 1.0 3.0 0.00 0.00 0.00 61 1013.5
20260503131016 49 0.0 2.0 0.00 0.00 0.00 90 1013.8
20260503081015 54 0.0 1.0 0.00 0.00 0.00 86 1013.1
20260503072038 56 0.0 0.0 0.00 0.00 0.00 85 1012.9
20260503071017 56 0.0 1.0 0.00 0.00 0.00 84 1013.0